Temperature
-2 -1 -1 -1 -1 -1 -1 -1 -0 0 -0 0 -0 -1 -1 -1 -1 -1 -1 -0 -0 0 0 0 0 0 0 1 1 1 2 2 2 2 2 2 2 2 2 2 3 3 3 3
-2 -1 -2 -1 -1 -1 -1 -1 -1 -1 -0 -0 -1 -1 -1 -1 -1 -1 -1 -1 -1 -1 -0 -0 -0 0 0 1 1 1 1 1 1 1 1 1 1 2 2 2 2 2 3 3
-2 -3 -2 -2 -1 -1 -2 -2 -2 -1 -1 -1 -2 -2 -2 -1 -1 -1 -1 -1 -1 -1 -1 -1 -1 -0 -0 0 0 0 1 1 1 1 1 1 1 1 1 2 2 2 2 2
-4 -3 -2 -0 -2 -2 -2 -2 -2 -2 -2 -2 -2 -2 -1 -1 -1 -1 -1 -1 -1 -1 -1 -1 -1 -1 -1 -0 -0 -0 0 0 1 1 1 1 1 1 1 1 1 1 2 2
-4 -4 -2 -1 -2 -3 -3 -2 -3 -3 -2 -2 -2 -2 -1 -1 -1 -1 -2 -2 -2 -2 -2 -2 -1 -1 -1 -1 -1 -0 -0 -0 -0 0 0 0 1 1 1 1 1 1 1 1
-5 -3 -2 -1 -2 -3 -3 -2 -2 -3 -3 -3 -3 -3 -2 -1 -1 -2 -2 -2 -2 -2 -2 -2 -2 -2 -2 -1 -1 -1 -1 -1 -1 -0 -0 -0 0 0 0 0 0 0 1 1
-5 -4 -3 -2 -3 -2 -2 -1 -2 -2 -2 -3 -4 -3 -2 -2 -2 -2 -2 -2 -2 -2 -2 -2 -2 -2 -2 -2 -2 -1 -1 -1 -1 -1 -1 -1 -1 -0 -0 -0 -0 -0 0 0
-5 -5 -2 -3 -4 -3 -2 -1 -2 -2 -2 -3 -2 -2 -2 -2 -2 -3 -3 -2 -2 -3 -2 -2 -2 -2 -2 -2 -2 -2 -2 -2 -2 -1 -1 -1 -1 -1 -1 -1 -1 -0 -0 -0
-4 -2 -2 -3 -2 -2 -2 -2 -2 -2 -2 -3 -3 -3 -3 -3 -3 -3 -3 -3 -3 -3 -3 -3 -3 -3 -3 -3 -2 -2 -2 -2 -2 -2 -2 -2 -2 -1 -1 -1 -1 -1 -1 -1
-6 -5 -3 -2 -2 -2 -2 -2 -2 -2 -2 -3 -3 -3 -3 -3 -3 -3 -3 -3 -3 -3 -3 -3 -3 -3 -3 -3 -3 -3 -3 -2 -2 -2 -2 -2 -2 -2 -2 -2 -2 -2 -2 -2
-6 -5 -4 -3 -2 -1 -2 -2 -2 -2 -3 -3 -3 -3 -3 -4 -4 -4 -4 -4 -4 -4 -4 -4 -4 -3 -3 -3 -3 -3 -3 -3 -3 -3 -3 -3 -3 -3 -2 -2 -3 -3 -3 -3
-4 -3 -4 -2 -1 -2 -2 -2 -3 -3 -3 -3 -4 -4 -4 -4 -4 -4 -4 -4 -4 -4 -4 -4 -4 -4 -4 -4 -3 -3 -3 -3 -3 -3 -3 -3 -3 -3 -3 -3 -3 -3 -3 -3
-2 -2 -2 -2 -2 -2 -2 -3 -3 -3 -3 -4 -4 -4 -4 -4 -4 -4 -4 -4 -4 -4 -4 -4 -4 -4 -4 -4 -4 -4 -4 -4 -4 -4 -4 -4 -4 -3 -3 -3 -3 -3 -3 -3
-2 -2 -3 -2 -2 -3 -3 -3 -3 -4 -4 -4 -4 -4 -4 -4 -4 -4 -5 -5 -5 -5 -4 -4 -4 -4 -4 -4 -4 -4 -4 -4 -4 -4 -4 -4 -4 -4 -4 -4 -3 -3 -3 -3
-2 -3 -3 -3 -3 -3 -3 -4 -4 -4 -4 -4 -4 -4 -5 -5 -5 -5 -5 -5 -5 -5 -5 -5 -4 -4 -4 -4 -4 -4 -4 -4 -4 -4 -4 -5 -4 -4 -4 -4 -4 -4 -4 -3
-3 -3 -3 -4 -4 -4 -4 -4 -4 -4 -4 -4 -5 -5 -5 -5 -5 -5 -5 -5 -5 -5 -5 -5 -5 -5 -5 -4 -4 -4 -4 -5 -5 -5 -5 -5 -5 -5 -5 -5 -5 -5 -4 -4
-4 -4 -4 -4 -4 -4 -4 -4 -4 -4 -5 -5 -5 -5 -5 -5 -5 -5 -5 -5 -5 -5 -5 -5 -5 -5 -5 -5 -5 -5 -5 -5 -5 -5 -5 -5 -5 -5 -5 -5 -5 -5 -5 -5
-3 -3 -4 -4 -4 -4 -4 -4 -4 -5 -5 -5 -5 -5 -5 -5 -5 -5 -5 -5 -5 -5 -5 -5 -5 -5 -5 -5 -5 -5 -5 -5 -5 -5 -5 -5 -6 -6 -6 -5 -5 -5 -5 -5
-4 -4 -4 -4 -4 -4 -4 -4 -4 -5 -5 -5 -5 -5 -5 -5 -5 -5 -5 -6 -6 -6 -6 -6 -5 -5 -5 -5 -6 -5 -6 -6 -6 -6 -6 -6 -6 -6 -6 -6 -6 -6 -5 -5
-4 -4 -4 -4 -5 -5 -5 -5 -5 -5 -5 -5 -5 -5 -5 -5 -5 -6 -6 -6 -6 -6 -6 -6 -6 -6 -6 -6 -6 -6 -6 -6 -6 -6 -6 -6 -6 -6 -6 -6 -6 -6 -6 -5
-4 -4 -5 -5 -5 -5 -5 -5 -5 -5 -5 -5 -5 -5 -5 -6 -6 -6 -6 -6 -6 -6 -6 -6 -6 -6 -6 -6 -6 -6 -6 -6 -6 -7 -7 -7 -7 -7 -6 -6 -6 -6 -6 -6
-5 -5 -5 -5 -5 -5 -5 -5 -5 -5 -5 -5 -6 -6 -6 -6 -6 -6 -6 -6 -6 -7 -7 -7 -7 -6 -6 -7 -6 -6 -6 -7 -7 -7 -7 -7 -7 -7 -7 -7 -6 -6 -6 -6
-5 -5 -5 -5 -5 -5 -6 -6 -6 -6 -6 -6 -6 -6 -6 -6 -6 -6 -6 -7 -7 -7 -7 -7 -7 -7 -7 -7 -7 -7 -7 -7 -7 -7 -7 -7 -7 -7 -7 -7 -7 -7 -7 -6
-5 -5 -6 -6 -6 -6 -6 -6 -6 -6 -6 -6 -6 -6 -6 -6 -6 -7 -7 -7 -7 -7 -7 -7 -7 -7 -7 -7 -7 -7 -7 -7 -7 -7 -7 -7 -7 -7 -7 -7 -7 -7 -7 -7
-5 -6 -6 -6 -6 -6 -6 -6 -6 -6 -6 -6 -7 -7 -7 -7 -7 -7 -7 -7 -7 -7 -7 -7 -7 -7 -7 -7 -7 -7 -7 -7 -8 -7 -7 -7 -7 -7 -7 -7 -7 -7 -7 -7
-6 -6 -6 -6 -6 -6 -6 -7 -7 -7 -7 -7 -7 -7 -7 -7 -7 -7 -7 -7 -7 -7 -7 -7 -7 -7 -7 -8 -8 -8 -8 -8 -8 -8 -8 -8 -8 -8 -8 -7 -7 -7 -7 -7
-6 -6 -6 -6 -7 -7 -7 -7 -7 -7 -7 -7 -7 -7 -7 -7 -7 -7 -7 -8 -8 -8 -8 -8 -8 -8 -8 -8 -8 -8 -8 -8 -8 -8 -8 -8 -8 -8 -8 -7 -7 -7 -7 -7
Wind_Speed
6 7 5 7 8 6 8 8 8 9 10 13 9 8 8 7 7 7 7 7 7 6 6 5 5 5 4 4 4 3 3 3 3 3 3 2 2 2 2 2 2 2 2 2
4 4 6 9 11 9 9 8 10 11 13 9 7 6 6 6 6 7 7 8 7 7 7 6 6 5 5 5 4 3 2 2 2 2 2 3 2 2 2 2 2 2 2 2
4 5 5 8 8 8 6 6 6 9 9 6 7 8 7 7 7 7 7 7 7 7 6 7 6 5 5 5 4 3 3 3 2 2 2 3 2 2 2 2 2 2 2 2
2 4 5 6 1 4 6 6 6 7 7 6 8 9 7 5 5 6 6 7 7 6 7 7 6 5 5 5 4 3 3 3 3 3 3 3 2 2 2 2 2 2 3 2
1 3 9 6 2 2 4 6 5 7 8 7 7 6 4 4 3 4 5 6 5 5 6 6 6 5 5 5 4 3 3 3 3 3 3 3 3 3 2 2 2 2 3 2
2 3 6 5 2 1 2 5 3 4 6 5 4 4 6 5 5 5 5 4 5 5 5 5 6 5 4 4 4 4 4 4 3 3 2 3 3 3 2 2 2 2 3 2
5 6 9 5 2 2 2 6 4 3 5 4 4 6 7 6 6 5 5 5 4 4 4 5 5 4 4 4 4 4 4 4 4 3 3 2 2 2 2 2 2 2 3 3
5 5 9 3 4 5 6 3 3 4 4 5 7 7 7 6 6 5 5 5 5 5 5 5 5 4 4 4 4 4 3 3 4 3 3 3 2 2 2 2 2 2 2 3
9 9 4 4 6 5 2 3 4 4 5 5 6 7 7 5 5 5 4 4 5 4 5 5 5 4 4 5 5 4 3 4 4 4 3 3 2 2 2 2 2 2 2 3
6 10 7 7 7 5 5 5 5 5 6 4 6 7 6 5 5 4 4 4 4 4 5 5 5 5 4 4 4 3 3 4 4 3 4 4 3 3 2 2 2 2 2 3
8 9 7 6 7 7 6 5 5 5 5 5 5 6 5 5 4 4 4 4 3 3 4 5 5 5 5 4 4 4 4 4 4 4 4 4 4 3 3 2 2 3 2 2
9 7 5 6 5 5 5 5 5 5 5 4 4 5 5 4 4 3 4 4 4 4 4 4 4 5 5 4 3 3 3 4 4 3 3 3 3 4 6 5 6 6 5 4
7 4 5 6 5 4 4 5 5 5 5 5 4 3 3 3 3 3 3 4 4 4 4 4 4 4 5 4 3 3 2 3 3 3 3 3 3 3 4 6 8 8 8 8
5 3 4 4 4 4 4 4 3 3 3 3 2 2 2 2 2 3 3 4 3 3 3 3 3 4 4 4 3 3 2 3 3 2 3 3 3 3 3 3 5 5 7 8
6 6 6 4 3 2 2 1 2 2 2 2 1 1 1 2 2 3 4 3 3 3 3 3 4 4 4 4 3 3 2 2 2 2 2 2 2 2 3 3 3 4 5 6
4 4 4 3 4 3 2 2 3 3 2 2 2 2 2 2 2 3 3 2 2 3 3 4 4 5 4 3 3 2 2 3 3 2 2 2 2 2 2 3 3 4 4 5
3 4 4 5 5 5 4 4 4 4 3 3 3 2 1 1 2 2 3 3 2 3 3 3 4 4 4 3 2 2 2 2 4 3 2 2 2 2 2 2 3 3 4 5
7 7 6 5 5 5 5 4 3 3 3 3 2 1 1 1 2 2 3 3 3 3 3 3 3 4 3 3 2 1 1 2 2 2 2 2 2 2 2 2 3 3 4 5
5 6 5 5 5 4 4 4 3 3 2 2 2 2 2 2 2 2 2 2 2 3 4 4 5 4 3 3 3 1 1 1 2 2 2 2 3 2 2 2 3 3 3 4
3 3 3 3 3 3 3 2 2 2 2 2 2 1 1 1 1 1 1 2 3 3 3 4 4 3 3 3 3 1 1 1 1 1 2 2 2 2 2 2 3 3 3 3
3 3 2 2 2 2 2 2 3 2 2 2 2 2 2 1 1 1 1 2 3 3 3 4 3 2 3 3 3 1 1 1 1 1 1 1 1 2 2 2 2 3 3 3
3 2 3 2 2 2 1 2 2 2 2 2 2 1 1 1 1 1 2 2 3 4 3 2 2 3 4 3 2 1 1 1 1 0 1 1 1 1 2 2 2 3 3 3
3 3 3 3 2 2 1 1 2 2 3 2 2 2 2 2 1 1 2 2 2 4 3 2 3 5 5 2 1 1 1 1 1 1 1 1 1 1 2 2 2 3 3 3
2 2 2 2 2 2 1 1 1 1 2 1 2 2 2 1 1 1 1 2 3 4 2 3 5 5 4 2 1 1 1 1 1 1 1 1 1 1 2 2 3 3 3 3
3 3 3 3 3 2 2 1 1 1 1 0 0 1 1 1 2 1 1 1 3 3 2 3 5 5 3 1 1 1 1 1 1 1 1 1 1 2 2 2 2 3 3 3
3 3 3 3 2 2 2 2 1 1 1 0 0 0 0 0 0 0 0 1 1 2 2 2 3 3 2 1 1 1 1 2 2 1 1 1 2 2 2 2 3 3 3 3
2 2 2 1 1 2 2 2 2 2 2 2 1 1 0 0 0 0 1 1 1 2 2 2 2 2 2 2 1 1 1 1 1 1 1 1 1 2 2 2 2 3 3 3
Wind_Direction
261 269 259 259 261 234 222 225 236 266 270 284 298 301 301 307 316 324 328 332 337 338 338 338 336 333 326 322 330 334 334 336 325 323 331 335 338 332 323 319 315 311 306 296
283 274 266 270 262 245 238 241 250 272 279 283 299 303 305 309 315 316 318 325 330 334 337 337 332 330 329 328 330 334 331 323 325 336 342 340 335 337 335 335 334 332 322 309
279 316 320 275 245 219 222 220 216 244 263 310 314 308 296 297 304 303 308 317 321 323 324 322 322 323 325 323 330 337 335 331 333 340 341 334 331 342 338 335 342 335 326 320
296 0 260 254 222 207 229 246 236 257 281 293 291 297 288 283 283 293 307 314 316 317 319 320 321 325 327 330 338 340 341 337 338 346 340 335 345 345 341 338 335 323 318 312
192 272 279 291 255 184 215 270 242 250 278 298 315 316 303 298 290 281 295 302 305 309 312 320 323 327 333 336 339 343 345 338 335 337 332 340 348 344 338 340 333 326 324 324
166 236 256 265 243 182 128 286 267 242 272 298 344 327 301 318 322 312 313 313 314 319 325 327 324 329 337 336 342 342 339 331 329 333 332 334 333 332 332 333 330 328 334 340
204 237 265 258 209 125 168 267 297 254 265 266 243 253 283 307 314 310 314 317 321 326 328 322 324 336 337 340 338 330 335 338 342 343 337 333 339 341 336 341 351 349 340 341
181 217 255 198 143 186 232 281 285 275 269 262 269 286 295 300 306 316 323 327 331 333 329 330 337 344 341 337 331 335 343 345 346 343 344 354 359 351 352 356 0 352 353 354
202 223 254 192 211 235 242 259 266 267 273 270 277 289 299 302 307 314 317 323 330 333 330 336 343 348 338 329 337 347 355 352 351 353 356 357 4 359 358 4 1 347 347 345
252 261 256 249 251 254 240 246 267 270 271 263 272 283 293 300 308 315 320 323 331 335 338 337 341 345 335 331 340 356 4 359 359 2 3 8 9 7 3 357 352 341 336 336
254 271 287 264 235 244 253 255 266 275 268 262 266 279 285 293 301 309 318 327 330 329 328 328 337 346 343 345 356 11 8 2 3 6 8 9 10 8 354 347 331 325 325 317
234 236 226 261 263 243 244 254 259 272 287 283 260 268 281 288 298 309 318 329 331 333 331 330 339 343 342 348 359 13 7 4 4 4 4 6 9 9 12 5 1 359 353 339
235 244 236 262 273 243 237 256 262 257 262 278 280 269 274 294 309 317 322 328 326 326 326 328 337 340 339 347 358 13 9 356 353 358 1 1 1 1 359 4 12 13 6 360
234 236 259 250 260 259 260 270 272 271 270 267 279 293 295 315 323 320 316 318 323 328 329 332 340 337 336 346 360 7 10 1 357 351 354 353 350 347 348 353 355 355 357 1
229 222 236 260 267 267 275 288 288 288 298 310 309 301 301 312 309 307 315 330 342 341 340 348 349 340 342 351 358 359 3 1 356 353 351 346 344 348 351 351 351 347 349 355
242 239 234 242 251 260 268 262 259 266 272 278 289 291 288 291 299 311 327 346 345 332 333 340 338 336 342 353 1 1 2 3 2 2 358 355 356 357 357 356 354 352 351 347
199 229 234 252 255 256 252 247 244 248 248 251 260 276 296 328 330 332 336 341 329 318 322 327 326 332 342 349 354 354 360 359 359 3 1 356 356 357 355 354 349 345 339 339
220 224 219 224 234 242 251 251 246 238 238 245 247 243 244 251 283 305 325 339 343 339 334 328 328 335 343 347 346 351 1 357 354 352 353 354 356 355 354 349 344 340 338 342
230 228 227 227 224 222 230 237 233 228 233 216 209 230 246 251 265 295 326 336 328 323 322 327 335 351 342 335 344 2 9 5 1 356 355 355 0 1 358 350 344 340 339 343
227 226 223 227 223 217 221 223 206 211 217 200 201 223 255 275 284 300 308 294 279 282 300 316 331 337 335 333 342 0 7 1 356 354 356 359 356 352 350 346 344 342 340 339
220 217 216 223 233 228 214 196 188 204 212 196 197 211 231 259 269 270 286 295 298 308 316 324 343 334 328 331 345 18 23 4 346 335 337 336 336 334 336 338 340 337 335 335
212 208 212 213 216 237 236 197 188 191 192 197 194 188 196 241 271 291 273 260 285 314 333 332 329 323 334 354 26 18 6 345 322 310 303 302 302 309 317 324 327 328 330 331
212 206 201 201 207 221 241 205 192 187 191 194 196 203 211 226 233 237 287 295 307 315 334 321 323 337 353 22 31 11 347 319 298 285 280 281 286 292 302 311 315 317 320 321
197 192 189 174 157 169 206 233 212 194 186 197 210 209 200 213 273 257 262 296 315 325 333 320 337 349 7 32 22 355 328 306 286 277 281 289 294 295 298 302 308 312 313 315
183 175 164 163 177 201 207 187 148 143 144 159 230 234 213 202 215 256 283 291 309 334 342 339 348 357 14 11 360 337 316 296 282 280 281 293 291 291 294 297 302 307 309 311
178 186 192 197 197 191 179 170 175 187 173 189 307 281 202 149 176 226 316 329 331 344 352 347 348 354 359 348 338 328 324 322 326 325 302 295 293 291 291 295 298 299 300 303
168 169 165 171 187 181 175 176 182 198 197 194 222 233 192 107 89 54 12 3 356 355 349 347 351 352 345 341 336 332 333 328 314 306 305 296 291 286 286 288 292 293 298 304
Height
1506 1503 1503 1501 1498 1499 1499 1496 1494 1484 1481 1472 1471 1469 1466 1463 1460 1457 1455 1452 1450 1448 1446 1444 1443 1442 1442 1440 1439 1437 1437 1436 1436 1436 1435 1435 1435 1435 1435 1435 1435 1435 1435 1435
1506 1501 1501 1498 1493 1492 1492 1490 1488 1483 1477 1470 1469 1467 1464 1462 1459 1457 1454 1452 1450 1447 1445 1443 1442 1441 1440 1438 1437 1436 1435 1435 1435 1434 1433 1433 1433 1433 1433 1433 1433 1433 1433 1433
1507 1505 1499 1494 1486 1486 1485 1483 1483 1480 1474 1470 1468 1465 1463 1460 1458 1456 1454 1452 1449 1447 1444 1442 1440 1439 1438 1436 1435 1434 1433 1433 1433 1432 1431 1432 1432 1431 1431 1430 1430 1430 1430 1430
1512 1508 1502 1483 1480 1480 1480 1478 1478 1474 1471 1469 1467 1463 1461 1459 1457 1455 1453 1451 1448 1446 1443 1441 1439 1438 1436 1434 1433 1432 1432 1431 1431 1430 1430 1430 1430 1429 1428 1428 1428 1428 1428 1427
1514 1511 1496 1482 1479 1480 1481 1476 1472 1471 1469 1467 1465 1461 1458 1457 1455 1454 1452 1450 1448 1445 1443 1440 1438 1436 1435 1433 1432 1431 1430 1430 1429 1428 1428 1428 1427 1427 1427 1426 1426 1426 1426 1425
1514 1508 1494 1478 1477 1475 1478 1475 1468 1467 1467 1465 1464 1463 1458 1455 1454 1452 1450 1449 1446 1444 1442 1439 1437 1435 1433 1432 1430 1429 1429 1428 1428 1427 1427 1426 1426 1425 1425 1425 1424 1424 1424 1423
1510 1507 1489 1477 1475 1476 1480 1472 1466 1465 1464 1464 1463 1461 1457 1454 1452 1450 1449 1447 1445 1443 1440 1438 1436 1434 1432 1431 1429 1428 1428 1427 1426 1426 1426 1425 1425 1424 1424 1424 1423 1422 1422 1421
1506 1504 1486 1473 1474 1475 1470 1465 1464 1463 1462 1461 1459 1457 1454 1452 1450 1448 1446 1445 1443 1441 1439 1437 1435 1433 1431 1430 1429 1428 1427 1426 1425 1425 1424 1424 1423 1423 1423 1422 1422 1421 1420 1420
1488 1479 1470 1468 1467 1466 1465 1464 1462 1461 1460 1458 1456 1454 1452 1449 1448 1446 1445 1443 1441 1439 1437 1436 1434 1432 1430 1429 1428 1427 1426 1425 1425 1424 1424 1423 1422 1422 1421 1421 1420 1419 1418 1417
1481 1469 1465 1464 1463 1463 1462 1461 1460 1459 1457 1455 1453 1451 1449 1447 1446 1444 1443 1441 1440 1438 1436 1434 1433 1431 1430 1428 1427 1426 1425 1424 1424 1423 1423 1422 1421 1421 1420 1420 1419 1418 1417 1417
1475 1465 1461 1458 1458 1458 1458 1457 1456 1455 1454 1452 1450 1449 1447 1445 1444 1442 1441 1440 1438 1437 1435 1433 1432 1430 1429 1428 1427 1426 1425 1424 1423 1422 1422 1421 1421 1420 1420 1419 1419 1418 1417 1417
1464 1458 1458 1455 1454 1454 1454 1453 1452 1451 1449 1448 1447 1446 1445 1443 1442 1441 1439 1438 1437 1436 1434 1433 1431 1430 1429 1428 1427 1426 1424 1424 1423 1422 1421 1421 1420 1419 1419 1419 1418 1417 1417 1416
1454 1453 1453 1452 1451 1451 1450 1450 1449 1448 1446 1445 1445 1444 1443 1441 1440 1439 1438 1437 1436 1435 1434 1432 1431 1430 1429 1427 1427 1426 1425 1424 1423 1422 1422 1421 1420 1419 1418 1418 1417 1416 1416 1415
1450 1451 1449 1448 1448 1447 1446 1446 1445 1445 1444 1443 1442 1441 1441 1440 1439 1438 1437 1436 1435 1434 1433 1432 1431 1429 1428 1427 1426 1426 1425 1424 1423 1423 1422 1421 1420 1419 1418 1417 1415 1415 1414 1414
1446 1446 1446 1445 1444 1444 1443 1442 1442 1441 1441 1440 1440 1440 1439 1438 1438 1437 1436 1436 1435 1434 1433 1431 1430 1429 1428 1427 1426 1425 1424 1424 1423 1422 1422 1421 1420 1419 1418 1417 1416 1414 1413 1413
1442 1442 1442 1441 1441 1440 1440 1439 1439 1439 1439 1438 1438 1438 1438 1437 1437 1436 1436 1435 1434 1433 1432 1431 1430 1429 1428 1427 1426 1425 1424 1424 1423 1422 1421 1421 1420 1419 1418 1416 1415 1414 1413 1412
1437 1437 1437 1437 1437 1436 1436 1437 1437 1436 1436 1436 1437 1437 1436 1436 1436 1435 1434 1434 1433 1432 1431 1430 1429 1428 1427 1427 1426 1425 1424 1423 1423 1422 1421 1420 1419 1418 1417 1416 1416 1415 1414 1413
1433 1434 1434 1434 1434 1433 1433 1434 1434 1434 1435 1435 1435 1435 1435 1435 1434 1434 1433 1433 1432 1431 1431 1430 1429 1428 1427 1426 1425 1424 1423 1423 1422 1421 1420 1419 1419 1418 1417 1416 1415 1414 1414 1413
1429 1430 1430 1430 1431 1431 1431 1431 1432 1432 1433 1433 1433 1433 1434 1433 1433 1433 1432 1431 1430 1430 1429 1429 1428 1427 1426 1425 1425 1424 1423 1422 1421 1420 1420 1419 1418 1418 1417 1416 1415 1415 1414 1413
1426 1426 1427 1427 1428 1428 1428 1429 1430 1430 1431 1431 1431 1432 1432 1432 1432 1431 1431 1430 1430 1429 1428 1427 1426 1426 1425 1424 1424 1423 1422 1421 1420 1420 1419 1418 1418 1417 1417 1416 1415 1415 1414 1413
1423 1424 1424 1424 1425 1425 1426 1427 1428 1428 1429 1429 1430 1430 1430 1430 1430 1430 1429 1429 1429 1428 1427 1426 1425 1425 1424 1423 1423 1422 1421 1421 1420 1419 1418 1418 1417 1417 1416 1415 1415 1414 1414 1413
1421 1421 1422 1422 1422 1423 1424 1425 1426 1427 1427 1427 1428 1428 1428 1429 1429 1429 1428 1428 1427 1426 1426 1425 1424 1424 1423 1423 1422 1421 1420 1420 1419 1418 1418 1417 1417 1416 1415 1415 1414 1414 1413 1413
1419 1419 1420 1420 1420 1421 1422 1423 1424 1424 1425 1425 1426 1426 1427 1427 1427 1427 1426 1426 1426 1425 1424 1424 1423 1423 1422 1421 1421 1420 1419 1418 1418 1417 1417 1416 1416 1415 1415 1414 1414 1413 1413 1412
1417 1417 1418 1418 1419 1419 1420 1421 1422 1423 1423 1424 1424 1425 1425 1425 1425 1425 1425 1424 1424 1424 1423 1423 1422 1421 1420 1420 1419 1418 1418 1417 1417 1416 1416 1415 1415 1415 1414 1414 1413 1413 1412 1412
1415 1416 1416 1417 1417 1418 1418 1419 1420 1420 1421 1422 1422 1423 1423 1423 1423 1423 1423 1423 1422 1422 1422 1421 1421 1420 1419 1418 1418 1417 1417 1416 1416 1415 1415 1414 1414 1414 1413 1413 1412 1412 1411 1411
1413 1414 1415 1415 1416 1416 1417 1418 1418 1419 1419 1419 1420 1421 1421 1422 1422 1421 1421 1421 1421 1421 1420 1420 1419 1419 1418 1417 1417 1416 1415 1415 1415 1414 1414 1414 1413 1413 1412 1412 1412 1411 1411 1410
1412 1412 1413 1414 1414 1415 1415 1416 1417 1417 1417 1418 1418 1419 1420 1420 1420 1420 1420 1420 1420 1419 1419 1419 1418 1417 1417 1416 1415 1415 1414 1414 1414 1413 1413 1413 1412 1412 1412 1411 1411 1411 1410 1409